Regional Weather Roundup
Issued by NWS

Home | Current Version | Previous Version | Text Only | Print | Product List | Glossary On
Versions: 1 2 3 4 5 6 7 8 9 10 11 12 13 14 15 16 17 18 19 20 21 22 23 24 25 26 27 28 29 30 31 32 33 34 35 36 37 38 39 40 41 42 43 44 45 46 47 48 49 50
428
ASUS45 KREV 111510
RWRNV
NEVADA REGIONAL WEATHER ROUNDUP
NATIONAL WEATHER SERVICE RENO NV
700 AM PST THU FEB 11 2016

NOTE: "FAIR" INDICATES FEW OR NO CLOUDS BELOW 12,000 FEET WITH NO
SIGNIFICANT WEATHER AND/OR OBSTRUCTIONS TO VISIBILITY.

NVZ001-003-004-111600-
WESTERN NEVADA

CITY           SKY/WX    TMP DP  RH WIND       PRES   REMARKS
RENO           MOCLDY    32  28  85 CALM      30.33R
CARSON CITY    FAIR      28  27  93 CALM      30.34R
MINDEN         FAIR      25  25 100 SE5       30.34S
PYRAMID LAKE     N/A     43 N/A N/A NW2         N/A
FALLON         MOCLDY    30  29  96 NE3       30.32F
LOVELOCK       FOG       27  23  85 CALM      30.33S VSB 3/4
HAWTHORNE      CLEAR     34  30  86 CALM      30.33F
$$

NVZ002-CAZ072-073-111600-
NORTHERN AND CENTRAL SIERRA

CITY           SKY/WX    TMP DP  RH WIND       PRES   REMARKS
S. LAKE TAHOE  PTCLDY    24  20  84 CALM      30.36S
TRUCKEE        CLEAR     25  21  86 CALM      30.36R
SQUAW VLY 8000   N/A     39  14  35 SW7         N/A
SUSANVILLE     CLEAR     32  32 100 W5        30.32R
BLUE CANYON    PTCLDY    54  16  22 E5        30.30R
MAMMOTH LAKES  FAIR      25  18  74 CALM      30.40S
BRIDGEPORT     FAIR      25  17  72 CALM      30.35S
$$

NVZ030-031-036-111600-
NORTHERN NEVADA

CITY           SKY/WX    TMP DP  RH WIND       PRES   REMARKS
ELKO           CLOUDY     9   5  84 E7        30.43S
WINNEMUCCA     MOCLDY    32  27  81 NE10      30.33F
WENDOVER       CLOUDY    28  25  86 CALM      30.48S
$$

NVZ035-037-111600-
CENTRAL NEVADA

CITY           SKY/WX    TMP DP  RH WIND       PRES   REMARKS
ELY            MOCLDY    12   5  73 S14       30.42R WCI  -3
EUREKA           N/A      8   4  83 SW6       30.41S
$$

NVZ013-014-111600-
SOUTH CENTRAL NEVADA

CITY           SKY/WX    TMP DP  RH WIND       PRES   REMARKS
TONOPAH        MOCLDY    30  22  72 N6        30.37R
$$

NVZ017-020-022-111600-
SOUTHERN NEVADA

CITY           SKY/WX    TMP DP  RH WIND       PRES   REMARKS
LAS VEGAS      PTCLDY    49  26  41 SW3       30.23R
N. LAS VEGAS   CLEAR     47  25  42 N3        30.27R
NELLIS AFB     PTCLDY    39  31  70 N6        30.27R
HENDERSON      CLEAR     43  25  49 S6        30.29R
MERCURY        PTCLDY    38  24  57 CALM      30.28R
$$




USA.gov is the U.S. government's official web portal to all federal, state and local government web resources and services.